User: anonymous   Login
Location: Marne
(34.0056°N, 117.9064°W)
Time: 11:53:43
(UTC+00:00)
Language:

STARLINK-1102 - Orbit

View from above orbital plane
View from above orbital plane
View from above satellite
View from above satellite

Ground track
Ground track

The orbit data is extracted from the following two-line orbital elements,

1 44920C 20001G   20099.19665925  .00004452  00000-0  30496-3 0   996
2 44920  53.0011 329.9336 0002125  69.1827 260.5572 15.05573986    16
Epoch (UTC): 08 April 2020 04:43:11
Eccentricity: 0.0002125
inclination: 53.0011°
perigee height: 548 km
apogee height: 551 km
right ascension of ascending node: 329.9336°
argument of perigee: 69.1827°
revolutions per day: 15.05573986
mean anomaly at epoch: 260.5572°
orbit number at epoch: 1

The dashed part of the orbit path shows where the satellite is in the earth's shadow,  

DLR